| time (UTC) | temp F | wind direction | speed MPH | gust MPH | rain 1hr in | rain 24hr in | rain mn in | humidity % | barometer mb |
| 20260502233101 | 52 | 105 | 0.0 | 0.0 | 0.00 | 0.47 | 0.47 | 95 | 1011.2 |
| 20260502232556 | 52 | 111 | 0.0 | 0.0 | 0.00 | 0.47 | 0.47 | 95 | 1011.1 |
| 20260502232054 | 53 | 257 | 0.0 | 0.0 | 0.00 | 0.47 | 0.47 | 95 | 1011.3 |
| 20260502231551 | 53 | 257 | 0.0 | 0.0 | 0.00 | 0.47 | 0.47 | 94 | 1011.2 |
| 20260502231049 | 53 | 114 | 0.0 | 0.0 | 0.00 | 0.47 | 0.47 | 94 | 1011.2 |
| 20260502230547 | 53 | 113 | 0.0 | 0.0 | 0.00 | 0.47 | 0.47 | 94 | 1011.3 |
| 20260502230045 | 53 | 118 | 0.0 | 0.0 | 0.00 | 0.47 | 0.47 | 94 | 1011.3 |
| 20260502225540 | 53 | 114 | 0.0 | 0.0 | 0.00 | 0.47 | 0.47 | 94 | 1011.3 |
| 20260502225038 | 53 | 107 | 0.0 | 0.0 | 0.00 | 0.47 | 0.47 | 95 | 1011.4 |
| 20260502224534 | 54 | 109 | 0.0 | 0.0 | 0.00 | 0.47 | 0.47 | 95 | 1011.4 |
| 20260502224031 | 53 | 109 | 0.0 | 0.0 | 0.00 | 0.47 | 0.47 | 94 | 1011.3 |
| 20260502223529 | 53 | 107 | 0.0 | 0.0 | 0.00 | 0.47 | 0.47 | 94 | 1011.2 |
| 20260502223027 | 54 | 107 | 0.0 | 0.0 | 0.00 | 0.47 | 0.47 | 94 | 1011.2 |
| 20260502222524 | 53 | 109 | 0.0 | 0.0 | 0.00 | 0.47 | 0.47 | 94 | 1011.2 |
| 20260502222020 | 54 | 107 | 0.0 | 0.0 | 0.00 | 0.47 | 0.47 | 94 | 1011.2 |
| 20260502221515 | 54 | 108 | 0.0 | 0.0 | 0.00 | 0.47 | 0.47 | 94 | 1011.2 |
| 20260502221013 | 54 | 109 | 0.0 | 1.0 | 0.00 | 0.47 | 0.47 | 94 | 1011.0 |
| 20260502220508 | 54 | 100 | 0.0 | 1.0 | 0.00 | 0.47 | 0.47 | 94 | 1011.3 |
| 20260502220005 | 53 | 127 | 0.0 | 0.0 | 0.07 | 0.47 | 0.47 | 94 | 1011.1 |
| 20260502215503 | 53 | 112 | 0.0 | 0.0 | 0.00 | 0.46 | 0.46 | 94 | 1011.0 |
| 20260502214959 | 53 | 117 | 1.0 | 1.0 | 0.00 | 0.46 | 0.46 | 94 | 1011.0 |
| 20260502214456 | 54 | 95 | 0.0 | 0.0 | 0.00 | 0.46 | 0.46 | 95 | 1010.9 |
| 20260502213954 | 54 | 136 | 0.0 | 1.0 | 0.00 | 0.46 | 0.46 | 95 | 1011.0 |
| 20260502213450 | 54 | 107 | 0.0 | 0.0 | 0.05 | 0.46 | 0.46 | 95 | 1010.7 |
| 20260502212949 | 53 | 118 | 1.0 | 1.0 | 0.05 | 0.46 | 0.46 | 95 | 1011.2 |
| 20260502212447 | 54 | 94 | 0.0 | 1.0 | 0.00 | 0.45 | 0.45 | 95 | 1011.0 |
| 20260502211944 | 55 | 106 | 0.0 | 1.0 | 0.00 | 0.45 | 0.45 | 95 | 1011.1 |
| 20260502211440 | 54 | 78 | 1.0 | 2.0 | 0.07 | 0.45 | 0.45 | 95 | 1011.1 |
| 20260502210938 | 55 | 120 | 1.0 | 2.0 | 0.07 | 0.45 | 0.45 | 95 | 1011.1 |
| 20260502210434 | 55 | 92 | 0.0 | 0.0 | 0.00 | 0.44 | 0.44 | 95 | 1011.0 |
| 20260502205931 | 55 | 110 | 0.0 | 0.0 | 0.00 | 0.44 | 0.44 | 95 | 1011.3 |
| 20260502205427 | 55 | 65 | 1.0 | 1.0 | 0.05 | 0.44 | 0.44 | 95 | 1011.1 |
| 20260502204925 | 54 | 66 | 1.0 | 1.0 | 0.05 | 0.44 | 0.44 | 95 | 1011.0 |
| 20260502204422 | 54 | 119 | 0.0 | 0.0 | 0.00 | 0.43 | 0.43 | 95 | 1011.2 |
| 20260502203920 | 54 | 89 | 0.0 | 1.0 | 0.00 | 0.43 | 0.43 | 95 | 1011.3 |
| 20260502203417 | 54 | 113 | 1.0 | 2.0 | 0.07 | 0.43 | 0.43 | 95 | 1011.0 |
| 20260502202912 | 54 | 104 | 0.0 | 0.0 | 0.07 | 0.43 | 0.43 | 96 | 1011.1 |
| 20260502202410 | 54 | 121 | 0.0 | 0.0 | 0.00 | 0.42 | 0.42 | 95 | 1011.0 |
| 20260502201908 | 53 | 106 | 0.0 | 1.0 | 0.07 | 0.42 | 0.42 | 95 | 1010.8 |
| 20260502201403 | 54 | 116 | 0.0 | 1.0 | 0.07 | 0.42 | 0.42 | 96 | 1011.2 |
| 20260502200900 | 54 | 117 | 0.0 | 0.0 | 0.00 | 0.41 | 0.41 | 96 | 1011.2 |
| 20260502200355 | 53 | 97 | 0.0 | 0.0 | 0.00 | 0.41 | 0.41 | 95 | 1011.1 |
| 20260502195854 | 53 | 70 | 0.0 | 0.0 | 0.00 | 0.41 | 0.41 | 96 | 1011.1 |
| 20260502195350 | 53 | 275 | 3.0 | 3.0 | 0.05 | 0.41 | 0.41 | 96 | 1011.2 |
| 20260502194847 | 53 | 93 | 1.0 | 3.0 | 0.00 | 0.40 | 0.40 | 96 | 1011.3 |
| 20260502194344 | 54 | 107 | 0.0 | 0.0 | 0.00 | 0.40 | 0.40 | 96 | 1011.1 |
| 20260502193840 | 54 | 84 | 1.0 | 2.0 | 0.00 | 0.40 | 0.40 | 96 | 1011.3 |
| 20260502193337 | 54 | 84 | 1.0 | 1.0 | 0.07 | 0.40 | 0.40 | 96 | 1011.3 |
| 20260502192833 | 54 | 102 | 0.0 | 1.0 | 0.07 | 0.40 | 0.40 | 96 | 1011.3 |
| 20260502192330 | 54 | 104 | 0.0 | 0.0 | 0.00 | 0.39 | 0.39 | 96 | 1011.6 |
| 20260502191827 | 53 | 107 | 0.0 | 0.0 | 0.00 | 0.39 | 0.39 | 96 | 1011.6 |
| 20260502191325 | 53 | 149 | 2.0 | 3.0 | 0.00 | 0.39 | 0.39 | 96 | 1011.6 |
| 20260502190822 | 53 | 101 | 0.0 | 1.0 | 0.05 | 0.39 | 0.39 | 96 | 1011.8 |
| 20260502190319 | 53 | 152 | 1.0 | 2.0 | 0.05 | 0.39 | 0.39 | 96 | 1011.7 |
| 20260502185815 | 53 | 174 | 1.0 | 1.0 | 0.00 | 0.38 | 0.38 | 96 | 1011.7 |
| 20260502185311 | 53 | 113 | 0.0 | 1.0 | 0.00 | 0.38 | 0.38 | 96 | 1011.8 |
| 20260502184808 | 53 | 125 | 2.0 | 4.0 | 0.07 | 0.38 | 0.38 | 96 | 1011.7 |
| 20260502184303 | 53 | 80 | 0.0 | 2.0 | 0.07 | 0.38 | 0.38 | 96 | 1011.5 |
| 20260502183800 | 53 | 24 | 1.0 | 1.0 | 0.00 | 0.37 | 0.37 | 96 | 1011.4 |
| 20260502183256 | 53 | 13 | 1.0 | 3.0 | 0.05 | 0.37 | 0.37 | 96 | 1011.6 |
| 20260502182752 | 53 | 69 | 2.0 | 4.0 | 0.05 | 0.37 | 0.37 | 96 | 1011.3 |
| 20260502182247 | 53 | 282 | 0.0 | 2.0 | 0.07 | 0.36 | 0.36 | 96 | 1011.7 |
| 20260502181744 | 53 | 104 | 1.0 | 6.0 | 0.07 | 0.36 | 0.36 | 96 | 1012.0 |
| 20260502181243 | 54 | 119 | 1.0 | 2.0 | 0.00 | 0.35 | 0.35 | 96 | 1012.1 |
| 20260502180740 | 54 | 273 | 2.0 | 2.0 | 0.05 | 0.35 | 0.35 | 96 | 1012.0 |
| 20260502180238 | 54 | 113 | 0.0 | 1.0 | 0.05 | 0.35 | 0.35 | 96 | 1011.8 |
| 20260502170202 | 53 | 353 | 2.0 | 3.0 | 0.07 | 0.30 | 0.30 | 97 | 1011.9 |
| 20260502164149 | 53 | 115 | 2.0 | 6.0 | 0.05 | 0.28 | 0.28 | 97 | 1012.3 |
| 20260502163644 | 53 | 105 | 0.0 | 1.0 | 0.05 | 0.28 | 0.28 | 97 | 1012.5 |
| 20260502163141 | 53 | 106 | 0.0 | 1.0 | 0.07 | 0.27 | 0.27 | 97 | 1012.8 |
| 20260502162638 | 52 | 110 | 0.0 | 0.0 | 0.07 | 0.27 | 0.27 | 97 | 1012.9 |
| 20260502162135 | 53 | 142 | 0.0 | 0.0 | 0.00 | 0.26 | 0.26 | 97 | 1012.9 |
| 20260502161632 | 53 | 121 | 0.0 | 0.0 | 0.05 | 0.26 | 0.26 | 97 | 1012.9 |
| 20260502161129 | 53 | 106 | 0.0 | 0.0 | 0.05 | 0.26 | 0.26 | 97 | 1013.0 |
| 20260502160627 | 53 | 96 | 0.0 | 1.0 | 0.00 | 0.25 | 0.25 | 97 | 1013.2 |
| 20260502160125 | 53 | 104 | 0.0 | 1.0 | 0.07 | 0.25 | 0.25 | 97 | 1013.1 |
| 20260502152039 | 53 | 336 | 4.0 | 6.0 | 0.05 | 0.22 | 0.22 | 97 | 1012.3 |
| 20260502151536 | 54 | 84 | 1.0 | 2.0 | 0.00 | 0.21 | 0.21 | 97 | 1012.4 |
| 20260502151034 | 53 | 46 | 1.0 | 6.0 | 0.07 | 0.21 | 0.21 | 97 | 1012.3 |
| 20260502150531 | 54 | 85 | 1.0 | 4.0 | 0.07 | 0.21 | 0.21 | 97 | 1012.4 |
| 20260502130416 | 53 | 97 | 1.0 | 3.0 | 0.05 | 0.13 | 0.13 | 96 | 1011.8 |
| 20260502123359 | 52 | 273 | 0.0 | 2.0 | 0.00 | 0.10 | 0.10 | 96 | 1011.3 |
| 20260502122856 | 52 | 102 | 0.0 | 1.0 | 0.07 | 0.10 | 0.10 | 96 | 1011.4 |
| 20260502122352 | 52 | 78 | 0.0 | 2.0 | 0.07 | 0.10 | 0.10 | 96 | 1011.3 |
| 20260502121850 | 52 | 50 | 1.0 | 1.0 | 0.05 | 0.09 | 0.09 | 96 | 1011.4 |
| 20260502121347 | 52 | 107 | 1.0 | 2.0 | 0.05 | 0.09 | 0.09 | 96 | 1011.3 |
| 20260502120845 | 52 | 97 | 0.0 | 1.0 | 0.00 | 0.08 | 0.08 | 95 | 1011.1 |
| 20260502120340 | 52 | 98 | 0.0 | 3.0 | 0.07 | 0.08 | 0.08 | 96 | 1011.1 |
| 20260502115838 | 52 | 70 | 1.0 | 2.0 | 0.07 | 0.08 | 0.08 | 95 | 1011.2 |
| 20260502115335 | 52 | 81 | 1.0 | 2.0 | 0.05 | 0.07 | 0.07 | 95 | 1011.1 |
| 20260502114831 | 52 | 339 | 3.0 | 3.0 | 0.05 | 0.07 | 0.07 | 95 | 1011.3 |
| 20260502114329 | 52 | 83 | 1.0 | 4.0 | 0.00 | 0.06 | 0.06 | 95 | 1011.3 |
| 20260502113825 | 52 | 122 | 1.0 | 4.0 | 0.07 | 0.06 | 0.06 | 95 | 1011.3 |
| 20260502113323 | 52 | 340 | 2.0 | 2.0 | 0.00 | 0.05 | 0.05 | 95 | 1011.3 |
| 20260502112821 | 52 | 193 | 2.0 | 3.0 | 0.07 | 0.05 | 0.05 | 95 | 1011.2 |
| 20260502112318 | 52 | 354 | 2.0 | 2.0 | 0.07 | 0.05 | 0.05 | 95 | 1011.3 |
| 20260502111815 | 52 | 74 | 0.0 | 2.0 | 0.00 | 0.04 | 0.04 | 95 | 1011.5 |
| 20260502111313 | 53 | 359 | 3.0 | 4.0 | 0.05 | 0.04 | 0.04 | 95 | 1011.5 |
| 20260502110810 | 53 | 48 | 1.0 | 3.0 | 0.05 | 0.04 | 0.04 | 95 | 1011.3 |
| 20260502110308 | 53 | 81 | 1.0 | 1.0 | 0.07 | 0.03 | 0.03 | 95 | 1011.4 |
| 20260502105806 | 53 | 75 | 0.0 | 2.0 | 0.07 | 0.03 | 0.03 | 95 | 1011.6 |
| 20260502105305 | 53 | 108 | 0.0 | 1.0 | 0.00 | 0.02 | 0.02 | 95 | 1011.5 |
| 20260502104800 | 53 | 119 | 0.0 | 2.0 | 0.05 | 0.02 | 0.02 | 95 | 1011.4 |
| 20260502104257 | 53 | 196 | 1.0 | 2.0 | 0.05 | 0.02 | 0.02 | 95 | 1011.6 |
| 20260502103754 | 53 | 141 | 0.0 | 0.0 | 0.00 | 0.01 | 0.01 | 95 | 1011.6 |
| 20260502103252 | 53 | 109 | 0.0 | 0.0 | 0.07 | 0.01 | 0.01 | 95 | 1011.5 |
| 20260502102749 | 53 | 115 | 0.0 | 0.0 | 0.07 | 0.01 | 0.01 | 95 | 1011.6 |
| 20260502102245 | 53 | 268 | 1.0 | 2.0 | 0.00 | 0.00 | 0.00 | 95 | 1011.3 |
| 20260502101743 | 53 | 101 | 0.0 | 1.0 | 0.00 | 0.00 | 0.00 | 95 | 1011.6 |
| 20260502101241 | 53 | 99 | 1.0 | 2.0 | 0.00 | 0.00 | 0.00 | 95 | 1011.6 |
| 20260502100739 | 53 | 65 | 2.0 | 3.0 | 0.00 | 0.00 | 0.00 | 95 | 1011.3 |
| 20260502100238 | 53 | 35 | 1.0 | 2.0 | 0.00 | 0.00 | 0.00 | 95 | 1011.5 |
| 20260502091211 | 52 | 119 | 0.0 | 1.0 | 0.00 | 0.00 | 0.00 | 96 | 1011.4 |
| 20260502090709 | 52 | 106 | 0.0 | 0.0 | 0.00 | 0.00 | 0.00 | 96 | 1011.2 |
| 20260502090206 | 52 | 104 | 0.0 | 0.0 | 0.00 | 0.00 | 0.00 | 96 | 1011.3 |
| 20260502071107 | 52 | 105 | 0.0 | 0.0 | 0.00 | 0.00 | 0.00 | 96 | 1010.8 |
| 20260502070605 | 52 | 105 | 0.0 | 0.0 | 0.00 | 0.00 | 0.00 | 96 | 1010.8 |
| 20260502065601 | 52 | 104 | 0.0 | 0.0 | 0.00 | 0.00 | 0.00 | 96 | 1011.0 |
| 20260502065058 | 52 | 104 | 0.0 | 0.0 | 0.00 | 0.00 | 0.00 | 96 | 1011.1 |
| 20260502064557 | 52 | 99 | 0.0 | 0.0 | 0.00 | 0.00 | 0.00 | 96 | 1011.1 |
| 20260502064054 | 52 | 101 | 0.0 | 0.0 | 0.00 | 0.00 | 0.00 | 96 | 1011.0 |
| 20260502063551 | 52 | 107 | 0.0 | 0.0 | 0.00 | 0.00 | 0.00 | 96 | 1010.9 |
| 20260502063049 | 52 | 106 | 0.0 | 0.0 | 0.00 | 0.00 | 0.00 | 96 | 1011.0 |
| 20260502062546 | 52 | 101 | 0.0 | 0.0 | 0.00 | 0.00 | 0.00 | 96 | 1010.9 |
| 20260502062044 | 52 | 108 | 0.0 | 0.0 | 0.00 | 0.00 | 0.00 | 96 | 1011.2 |
| 20260502061542 | 52 | 108 | 0.0 | 0.0 | 0.00 | 0.00 | 0.00 | 96 | 1011.2 |
| 20260502061038 | 52 | 108 | 0.0 | 0.0 | 0.00 | 0.00 | 0.00 | 96 | 1011.3 |
| 20260502060533 | 52 | 108 | 0.0 | 0.0 | 0.00 | 0.00 | 0.00 | 96 | 1011.2 |
| 20260502060031 | 52 | 108 | 0.0 | 0.0 | 0.00 | 0.00 | 0.00 | 96 | 1011.4 |
| 20260502055528 | 52 | 108 | 0.0 | 0.0 | 0.00 | 0.00 | 0.00 | 96 | 1011.6 |
| 20260502055027 | 52 | 111 | 0.0 | 0.0 | 0.00 | 0.00 | 0.00 | 96 | 1011.5 |
| 20260502054525 | 51 | 117 | 0.0 | 0.0 | 0.00 | 0.00 | 0.00 | 95 | 1011.6 |
| 20260502054021 | 51 | 131 | 0.0 | 0.0 | 0.00 | 0.00 | 0.00 | 95 | 1011.7 |
| 20260502053518 | 51 | 107 | 0.0 | 0.0 | 0.00 | 0.00 | 0.00 | 95 | 1011.5 |
| 20260502053017 | 51 | 105 | 0.0 | 0.0 | 0.00 | 0.00 | 0.00 | 95 | 1011.6 |
| 20260502052515 | 51 | 104 | 0.0 | 0.0 | 0.00 | 0.00 | 0.00 | 95 | 1011.6 |
| 20260502052013 | 51 | 105 | 0.0 | 0.0 | 0.00 | 0.00 | 0.00 | 95 | 1011.7 |
| 20260502051510 | 51 | 111 | 0.0 | 0.0 | 0.00 | 0.00 | 0.00 | 95 | 1011.9 |
| 20260502051007 | 51 | 107 | 0.0 | 0.0 | 0.00 | 0.00 | 0.00 | 95 | 1011.9 |
| 20260502050504 | 51 | 107 | 0.0 | 0.0 | 0.00 | 0.00 | 0.00 | 95 | 1011.9 |
| 20260502050001 | 51 | 107 | 0.0 | 0.0 | 0.00 | 0.00 | 0.00 | 95 | 1011.9 |
| 20260502045457 | 51 | 107 | 0.0 | 0.0 | 0.00 | 0.00 | 0.00 | 95 | 1012.0 |
| 20260502044955 | 51 | 107 | 0.0 | 0.0 | 0.00 | 0.00 | 0.00 | 95 | 1012.0 |
| 20260502044450 | 51 | 106 | 0.0 | 0.0 | 0.00 | 0.00 | 0.00 | 95 | 1012.1 |
| 20260502043947 | 51 | 107 | 0.0 | 0.0 | 0.00 | 0.00 | 0.00 | 95 | 1011.7 |
| 20260502043445 | 51 | 107 | 0.0 | 0.0 | 0.00 | 0.00 | 0.00 | 95 | 1012.2 |
| 20260502042944 | 51 | 107 | 0.0 | 0.0 | 0.00 | 0.00 | 0.00 | 95 | 1012.1 |
| 20260502042442 | 51 | 107 | 0.0 | 0.0 | 0.00 | 0.00 | 0.00 | 95 | 1012.3 |
| 20260502041939 | 51 | 107 | 0.0 | 0.0 | 0.00 | 0.00 | 0.00 | 95 | 1012.1 |
| 20260502041437 | 51 | 106 | 0.0 | 0.0 | 0.00 | 0.00 | 0.00 | 95 | 1012.3 |
| 20260502040933 | 51 | 106 | 0.0 | 0.0 | 0.00 | 0.00 | 0.00 | 94 | 1012.0 |
| 20260502040430 | 51 | 109 | 0.0 | 0.0 | 0.00 | 0.00 | 0.00 | 94 | 1012.0 |
| 20260502035926 | 51 | 111 | 0.0 | 0.0 | 0.00 | 0.03 | 0.03 | 94 | 1012.1 |
| 20260502035423 | 51 | 104 | 0.0 | 0.0 | 0.00 | 0.03 | 0.03 | 94 | 1012.0 |
| 20260502034921 | 51 | 107 | 0.0 | 0.0 | 0.00 | 0.03 | 0.03 | 94 | 1012.2 |
| 20260502034419 | 51 | 107 | 0.0 | 0.0 | 0.00 | 0.03 | 0.03 | 94 | 1012.2 |
| 20260502033917 | 50 | 105 | 0.0 | 0.0 | 0.00 | 0.03 | 0.03 | 94 | 1012.3 |
| 20260502033414 | 50 | 104 | 0.0 | 0.0 | 0.00 | 0.03 | 0.03 | 94 | 1012.4 |
| 20260502032911 | 50 | 107 | 0.0 | 0.0 | 0.00 | 0.03 | 0.03 | 94 | 1012.5 |
| 20260502032407 | 50 | 107 | 0.0 | 0.0 | 0.00 | 0.03 | 0.03 | 94 | 1012.5 |
| 20260502031904 | 50 | 103 | 0.0 | 0.0 | 0.00 | 0.03 | 0.03 | 94 | 1012.3 |
| 20260502031403 | 50 | 105 | 0.0 | 0.0 | 0.00 | 0.03 | 0.03 | 94 | 1012.7 |
| 20260502030901 | 50 | 104 | 0.0 | 0.0 | 0.00 | 0.03 | 0.03 | 93 | 1012.7 |
| 20260502030359 | 50 | 106 | 0.0 | 0.0 | 0.00 | 0.03 | 0.03 | 93 | 1012.7 |
| 20260502025856 | 50 | 112 | 0.0 | 0.0 | 0.00 | 0.03 | 0.03 | 93 | 1012.6 |
| 20260502025353 | 50 | 112 | 0.0 | 0.0 | 0.00 | 0.03 | 0.03 | 93 | 1012.7 |
| 20260502024851 | 50 | 112 | 0.0 | 0.0 | 0.00 | 0.03 | 0.03 | 93 | 1012.7 |
| 20260502024348 | 50 | 112 | 0.0 | 0.0 | 0.00 | 0.03 | 0.03 | 93 | 1012.9 |
| 20260502023846 | 50 | 112 | 0.0 | 0.0 | 0.00 | 0.03 | 0.03 | 93 | 1012.9 |
| 20260502023344 | 50 | 111 | 0.0 | 0.0 | 0.00 | 0.03 | 0.03 | 93 | 1012.7 |
| 20260502022841 | 50 | 103 | 0.0 | 0.0 | 0.00 | 0.03 | 0.03 | 93 | 1012.8 |
| 20260502022337 | 50 | 98 | 0.0 | 0.0 | 0.00 | 0.03 | 0.03 | 92 | 1012.8 |
| 20260502021834 | 51 | 86 | 0.0 | 0.0 | 0.00 | 0.03 | 0.03 | 92 | 1012.7 |
| 20260502021332 | 51 | 125 | 0.0 | 0.0 | 0.00 | 0.03 | 0.03 | 92 | 1012.5 |
| 20260502020829 | 51 | 120 | 0.0 | 0.0 | 0.00 | 0.03 | 0.03 | 92 | 1012.8 |
| 20260502020327 | 51 | 120 | 0.0 | 0.0 | 0.00 | 0.03 | 0.03 | 92 | 1012.9 |
| 20260502015823 | 51 | 120 | 0.0 | 0.0 | 0.00 | 0.03 | 0.03 | 92 | 1012.8 |
| 20260502015320 | 51 | 105 | 0.0 | 0.0 | 0.00 | 0.03 | 0.03 | 92 | 1012.8 |
| 20260502014818 | 51 | 105 | 0.0 | 0.0 | 0.00 | 0.03 | 0.03 | 91 | 1012.8 |
| 20260502014315 | 51 | 109 | 0.0 | 0.0 | 0.00 | 0.03 | 0.03 | 91 | 1012.6 |
| 20260502013811 | 51 | 109 | 0.0 | 0.0 | 0.00 | 0.03 | 0.03 | 91 | 1012.9 |
| 20260502013307 | 51 | 109 | 0.0 | 0.0 | 0.00 | 0.03 | 0.03 | 91 | 1012.8 |
| 20260502012803 | 51 | 104 | 0.0 | 0.0 | 0.00 | 0.03 | 0.03 | 91 | 1012.8 |
| 20260502012301 | 51 | 104 | 0.0 | 0.0 | 0.00 | 0.03 | 0.03 | 90 | 1012.8 |
| 20260502011758 | 51 | 103 | 0.0 | 0.0 | 0.00 | 0.03 | 0.03 | 90 | 1012.7 |
| 20260502011254 | 51 | 103 | 0.0 | 0.0 | 0.00 | 0.03 | 0.03 | 90 | 1012.6 |
| 20260502010751 | 51 | 98 | 0.0 | 1.0 | 0.00 | 0.03 | 0.03 | 90 | 1012.4 |
| 20260502010247 | 52 | 95 | 1.0 | 1.0 | 0.00 | 0.03 | 0.03 | 89 | 1012.3 |
| 20260502005745 | 52 | 96 | 0.0 | 1.0 | 0.00 | 0.03 | 0.03 | 89 | 1012.6 |
| 20260502005242 | 52 | 106 | 0.0 | 0.0 | 0.00 | 0.03 | 0.03 | 89 | 1012.4 |
| 20260502004739 | 52 | 105 | 0.0 | 0.0 | 0.00 | 0.03 | 0.03 | 89 | 1012.5 |
| 20260502004235 | 53 | 103 | 0.0 | 0.0 | 0.00 | 0.03 | 0.03 | 88 | 1012.2 |
| 20260502003733 | 53 | 101 | 0.0 | 0.0 | 0.00 | 0.03 | 0.03 | 88 | 1012.2 |
| 20260502003231 | 53 | 94 | 0.0 | 0.0 | 0.00 | 0.03 | 0.03 | 88 | 1011.9 |
| 20260502002726 | 53 | 106 | 0.0 | 0.0 | 0.00 | 0.03 | 0.03 | 88 | 1012.0 |
| 20260502002224 | 53 | 111 | 0.0 | 0.0 | 0.00 | 0.03 | 0.03 | 87 | 1011.9 |
| 20260502001721 | 53 | 107 | 0.0 | 0.0 | 0.00 | 0.03 | 0.03 | 87 | 1012.0 |
| 20260502001219 | 53 | 99 | 0.0 | 0.0 | 0.00 | 0.03 | 0.03 | 87 | 1011.9 |
| 20260502000716 | 54 | 102 | 0.0 | 1.0 | 0.00 | 0.03 | 0.03 | 86 | 1012.0 |
| 20260502000214 | 54 | 103 | 0.0 | 1.0 | 0.00 | 0.03 | 0.03 | 86 | 1012.1 |
| 20260501235710 | 54 | 99 | 1.0 | 1.0 | 0.00 | 0.03 | 0.03 | 86 | 1012.2 |
| 20260501235206 | 55 | 138 | 0.0 | 0.0 | 0.00 | 0.03 | 0.03 | 85 | 1012.3 |
| 20260501234702 | 55 | 125 | 0.0 | 1.0 | 0.00 | 0.03 | 0.03 | 85 | 1012.3 |
| 20260501234159 | 55 | 165 | 4.0 | 4.0 | 0.00 | 0.03 | 0.03 | 85 | 1012.2 |
| 20260501233657 | 54 | 108 | 2.0 | 2.0 | 0.00 | 0.03 | 0.03 | 85 | 1012.2 |